STARLINK-1422 (45696 NORAD) Tracking and Keplerian Element Data

This shows tracking and keplerian element data for the satellite.

Feedback or suggestion? Click here.




ElementValue
Catalog45696
NameSTARLINK-1422
Epoch Orbit552
Epoch Day185.50001157
Epoch Year2020
RAAN24.9233
Inclination52.9996
Eccentricity0.0001039
Argument of Perigee82.4019
Mean Anonmoly7.3474
Mean Motion15.62789425
Decay Rate-0.00065424
L11 45696U 20035AR 20185.50001157 -.00065424 00000-0 -71340-3 0 9996
L22 45696 52.9996 24.9233 0001039 82.4019 7.3474 15.62789425 5528

Live tracking and technical data element details for STARLINK-1422 (NORAD 45696). STARLINK-1422 can be tracked NOW for your location showing map with azimuth and elevation plus other details from your city location.

Track the satellite on the map from your city or location and see movement details for azimuth, elevation, latitude, longitude, range, height, and movement on the map or in text.







IsCatalogInMostPopularTable: catalog: 45696, numindb: 4
Update: records affected: 1



GetName: 45696 STARLINK-1422

Hit Count: updated at: Sat, 04 Jul 2020 02:54:01 GMT